Time,TemperatureF,DewpointF,PressureIn,WindDirection,WindDirectionDegrees,WindSpeedMPH,WindSpeedGustMPH,Humidity,HourlyPrecipIn,Conditions,Clouds,dailyrainin,SolarRadiationWatts/m^2,SoftwareType,DateUTC
2013-01-08 00:00:00,25.9,17.1,29.65,N/A,-32768,0.0,0.0,69,0.00,,,0.00,0,Wunderground v.1.15,2013-01-08 05:00:00,
2013-01-08 00:04:00,25.9,17.1,29.65,N/A,-32768,0.0,0.0,69,0.00,,,0.00,0,Wunderground v.1.15,2013-01-08 05:04:00,
2013-01-08 00:07:00,26.1,17.3,29.65,N/A,-32768,0.0,0.0,69,0.00,,,0.00,0,Wunderground v.1.15,2013-01-08 05:07:00,
2013-01-08 00:09:00,25.8,17.0,29.65,N/A,-32768,0.0,0.0,69,0.00,,,0.00,0,Wunderground v.1.15,2013-01-08 05:09:00,
2013-01-08 00:14:00,25.9,17.1,29.65,N/A,-32768,0.0,0.0,69,0.00,,,0.00,0,Wunderground v.1.15,2013-01-08 05:14:00,
2013-01-08 00:19:00,26.0,17.2,29.65,N/A,-32768,0.0,0.0,69,0.00,,,0.00,0,Wunderground v.1.15,2013-01-08 05:19:00,
2013-01-08 00:25:00,25.6,16.8,29.65,N/A,-32768,0.0,0.0,69,0.00,,,0.00,0,Wunderground v.1.15,2013-01-08 05:25:00,
2013-01-08 00:31:00,25.6,16.8,29.65,N/A,-32768,0.0,0.0,69,0.00,,,0.00,0,Wunderground v.1.15,2013-01-08 05:31:00,
2013-01-08 00:36:00,25.5,16.7,29.65,N/A,-32768,0.0,0.0,69,0.00,,,0.00,0,Wunderground v.1.15,2013-01-08 05:36:00,
2013-01-08 00:42:00,25.5,16.7,29.65,N/A,-32768,0.0,0.0,69,0.00,,,0.00,0,Wunderground v.1.15,2013-01-08 05:42:00,
2013-01-08 00:48:00,25.4,16.6,29.65,N/A,-32768,0.0,0.0,69,0.00,,,0.00,0,Wunderground v.1.15,2013-01-08 05:48:00,
2013-01-08 00:53:00,25.2,16.5,29.65,N/A,-32768,0.0,0.0,69,0.00,,,0.00,0,Wunderground v.1.15,2013-01-08 05:53:00,
2013-01-08 00:59:00,25.2,16.5,29.65,N/A,-32768,0.0,0.0,69,0.00,,,0.00,0,Wunderground v.1.15,2013-01-08 05:59:00,
2013-01-08 01:04:00,25.1,16.4,29.65,N/A,-32768,0.0,0.0,69,0.00,,,0.00,0,Wunderground v.1.15,2013-01-08 06:04:00,
2013-01-08 01:09:00,25.2,16.8,29.65,N/A,-32768,0.0,0.0,70,0.00,,,0.00,0,Wunderground v.1.15,2013-01-08 06:09:00,
2013-01-08 01:15:00,25.1,16.7,29.65,N/A,-32768,0.0,0.0,70,0.00,,,0.00,0,Wunderground v.1.15,2013-01-08 06:15:00,
2013-01-08 01:20:00,25.2,17.1,29.65,N/A,-32768,0.0,0.0,71,0.00,,,0.00,0,Wunderground v.1.15,2013-01-08 06:20:00,
2013-01-08 01:26:00,25.2,17.1,29.65,N/A,-32768,0.0,0.0,71,0.00,,,0.00,0,Wunderground v.1.15,2013-01-08 06:26:00,
2013-01-08 01:31:00,25.2,17.1,29.65,N/A,-32768,0.0,0.0,71,0.00,,,0.00,0,Wunderground v.1.15,2013-01-08 06:31:00,
2013-01-08 01:36:00,25.2,17.1,29.65,N/A,-32768,0.0,0.0,71,0.00,,,0.00,0,Wunderground v.1.15,2013-01-08 06:36:00,
2013-01-08 01:41:00,25.2,17.4,29.65,N/A,-32768,0.0,0.0,72,0.00,,,0.00,0,Wunderground v.1.15,2013-01-08 06:41:00,
2013-01-08 01:47:00,25.7,17.9,29.65,N/A,-32768,0.0,0.0,72,0.00,,,0.00,0,Wunderground v.1.15,2013-01-08 06:47:00,
2013-01-08 01:52:00,25.7,17.9,29.65,N/A,-32768,0.0,0.0,72,0.00,,,0.00,0,Wunderground v.1.15,2013-01-08 06:52:00,
2013-01-08 01:57:00,25.6,17.8,29.65,N/A,-32768,0.0,0.0,72,0.00,,,0.00,0,Wunderground v.1.15,2013-01-08 06:57:00,
2013-01-08 02:02:00,25.7,17.9,29.65,N/A,-32768,0.0,0.0,72,0.00,,,0.00,0,Wunderground v.1.15,2013-01-08 07:02:00,
2013-01-08 02:07:00,25.6,17.8,29.65,N/A,-32768,0.0,0.0,72,0.00,,,0.00,0,Wunderground v.1.15,2013-01-08 07:07:00,
2013-01-08 02:12:00,25.4,17.6,29.65,N/A,-32768,0.0,0.0,72,0.00,,,0.00,0,Wunderground v.1.15,2013-01-08 07:12:00,
2013-01-08 02:17:00,25.3,17.5,29.65,N/A,-32768,0.0,0.0,72,0.00,,,0.00,0,Wunderground v.1.15,2013-01-08 07:17:00,
2013-01-08 02:22:00,25.5,17.7,29.65,N/A,-32768,0.0,0.0,72,0.00,,,0.00,0,Wunderground v.1.15,2013-01-08 07:22:00,
2013-01-08 02:27:00,25.3,17.5,29.64,N/A,-32768,0.0,0.0,72,0.00,,,0.00,0,Wunderground v.1.15,2013-01-08 07:27:00,
2013-01-08 02:32:00,25.1,17.3,29.65,N/A,-32768,0.0,0.0,72,0.00,,,0.00,0,Wunderground v.1.15,2013-01-08 07:32:00,
2013-01-08 02:37:00,25.3,17.5,29.64,N/A,-32768,0.0,0.0,72,0.00,,,0.00,0,Wunderground v.1.15,2013-01-08 07:37:00,
2013-01-08 02:42:00,25.1,17.3,29.64,N/A,-32768,0.0,0.0,72,0.00,,,0.00,0,Wunderground v.1.15,2013-01-08 07:42:00,
2013-01-08 02:47:00,25.1,17.3,29.64,N/A,-32768,0.0,0.0,72,0.00,,,0.00,0,Wunderground v.1.15,2013-01-08 07:47:00,
2013-01-08 02:52:00,24.8,17.1,29.64,N/A,-32768,0.0,0.0,72,0.00,,,0.00,0,Wunderground v.1.15,2013-01-08 07:52:00,
2013-01-08 02:57:00,24.6,16.9,29.64,N/A,-32768,0.0,0.0,72,0.00,,,0.00,0,Wunderground v.1.15,2013-01-08 07:57:00,
2013-01-08 03:02:00,24.7,17.0,29.64,N/A,-32768,0.0,0.0,72,0.00,,,0.00,0,Wunderground v.1.15,2013-01-08 08:02:00,
2013-01-08 03:07:00,24.4,17.0,29.64,N/A,-32768,0.0,0.0,73,0.00,,,0.00,0,Wunderground v.1.15,2013-01-08 08:07:00,
2013-01-08 03:12:00,24.3,16.6,29.64,N/A,-32768,0.0,0.0,72,0.00,,,0.00,0,Wunderground v.1.15,2013-01-08 08:12:00,
2013-01-08 03:17:00,24.4,16.3,29.64,N/A,-32768,0.0,0.0,71,0.00,,,0.00,0,Wunderground v.1.15,2013-01-08 08:17:00,
2013-01-08 03:22:00,24.4,16.3,29.64,N/A,-32768,0.0,0.0,71,0.00,,,0.00,0,Wunderground v.1.15,2013-01-08 08:22:00,
2013-01-08 03:27:00,24.2,15.8,29.63,N/A,-32768,0.0,0.0,70,0.00,,,0.00,0,Wunderground v.1.15,2013-01-08 08:27:00,
2013-01-08 03:32:00,24.1,15.7,29.63,N/A,-32768,0.0,0.0,70,0.00,,,0.00,0,Wunderground v.1.15,2013-01-08 08:32:00,
2013-01-08 03:37:00,24.0,15.6,29.63,N/A,-32768,0.0,0.0,70,0.00,,,0.00,0,Wunderground v.1.15,2013-01-08 08:37:00,
2013-01-08 03:42:00,24.3,15.9,29.63,N/A,-32768,0.0,0.0,70,0.00,,,0.00,0,Wunderground v.1.15,2013-01-08 08:42:00,
2013-01-08 03:47:00,24.0,15.6,29.63,N/A,-32768,0.0,0.0,70,0.00,,,0.00,0,Wunderground v.1.15,2013-01-08 08:47:00,
2013-01-08 03:52:00,24.2,16.1,29.63,N/A,-32768,0.0,0.0,71,0.00,,,0.00,0,Wunderground v.1.15,2013-01-08 08:52:00,
2013-01-08 03:57:00,24.0,16.0,29.63,N/A,-32768,0.0,0.0,71,0.00,,,0.00,0,Wunderground v.1.15,2013-01-08 08:57:00,
2013-01-08 04:02:00,24.0,16.0,29.63,N/A,-32768,0.0,0.0,71,0.00,,,0.00,0,Wunderground v.1.15,2013-01-08 09:02:00,
2013-01-08 04:07:00,24.0,16.0,29.62,N/A,-32768,0.0,0.0,71,0.00,,,0.00,0,Wunderground v.1.15,2013-01-08 09:07:00,
2013-01-08 04:12:00,23.9,16.2,29.62,N/A,-32768,0.0,0.0,72,0.00,,,0.00,0,Wunderground v.1.15,2013-01-08 09:12:00,
2013-01-08 04:17:00,24.2,16.5,29.62,N/A,-32768,0.0,0.0,72,0.00,,,0.00,0,Wunderground v.1.15,2013-01-08 09:17:00,
2013-01-08 04:22:00,24.0,16.3,29.62,N/A,-32768,0.0,0.0,72,0.00,,,0.00,0,Wunderground v.1.15,2013-01-08 09:22:00,
2013-01-08 04:27:00,24.4,16.7,29.62,N/A,-32768,0.0,0.0,72,0.00,,,0.00,0,Wunderground v.1.15,2013-01-08 09:27:00,
2013-01-08 04:33:00,24.7,17.3,29.62,N/A,-32768,0.0,0.0,73,0.00,,,0.00,0,Wunderground v.1.15,2013-01-08 09:33:00,
2013-01-08 04:38:00,24.8,17.1,29.62,N/A,-32768,0.0,0.0,72,0.00,,,0.00,0,Wunderground v.1.15,2013-01-08 09:38:00,
2013-01-08 04:43:00,24.8,17.4,29.62,N/A,-32768,0.0,0.0,73,0.00,,,0.00,0,Wunderground v.1.15,2013-01-08 09:43:00,
2013-01-08 04:48:00,24.9,17.5,29.62,N/A,-32768,0.0,0.0,73,0.00,,,0.00,0,Wunderground v.1.15,2013-01-08 09:48:00,
2013-01-08 04:53:00,25.1,17.7,29.62,N/A,-32768,0.0,0.0,73,0.00,,,0.00,0,Wunderground v.1.15,2013-01-08 09:53:00,
2013-01-08 04:58:00,25.0,17.6,29.62,N/A,-32768,0.0,0.0,73,0.00,,,0.00,0,Wunderground v.1.15,2013-01-08 09:58:00,
2013-01-08 05:03:00,25.4,17.9,29.63,N/A,-32768,0.0,0.0,73,0.00,,,0.00,0,Wunderground v.1.15,2013-01-08 10:03:00,
2013-01-08 05:08:00,25.6,18.1,29.62,N/A,-32768,0.0,0.0,73,0.00,,,0.00,0,Wunderground v.1.15,2013-01-08 10:08:00,
2013-01-08 05:14:00,25.7,18.2,29.63,N/A,-32768,0.0,0.0,73,0.00,,,0.00,0,Wunderground v.1.15,2013-01-08 10:14:00,
2013-01-08 05:19:00,25.9,18.4,29.63,N/A,-32768,0.0,0.0,73,0.00,,,0.00,0,Wunderground v.1.15,2013-01-08 10:19:00,
2013-01-08 05:24:00,25.8,18.0,29.63,N/A,-32768,0.0,0.0,72,0.00,,,0.00,0,Wunderground v.1.15,2013-01-08 10:24:00,
2013-01-08 05:29:00,26.0,18.5,29.63,N/A,-32768,0.0,0.0,73,0.00,,,0.00,0,Wunderground v.1.15,2013-01-08 10:29:00,
2013-01-08 05:34:00,26.2,18.7,29.63,N/A,-32768,0.0,0.0,73,0.00,,,0.00,0,Wunderground v.1.15,2013-01-08 10:34:00,
2013-01-08 05:39:00,26.0,18.5,29.63,N/A,-32768,0.0,0.0,73,0.00,,,0.00,0,Wunderground v.1.15,2013-01-08 10:39:00,
2013-01-08 05:44:00,26.2,18.7,29.64,N/A,-32768,0.0,0.0,73,0.00,,,0.00,0,Wunderground v.1.15,2013-01-08 10:44:00,
2013-01-08 05:49:00,25.9,18.4,29.64,N/A,-32768,0.0,0.0,73,0.00,,,0.00,0,Wunderground v.1.15,2013-01-08 10:49:00,
2013-01-08 05:54:00,25.9,18.4,29.64,N/A,-32768,0.0,0.0,73,0.00,,,0.00,0,Wunderground v.1.15,2013-01-08 10:54:00,
2013-01-08 05:59:00,26.1,18.6,29.65,N/A,-32768,0.0,0.0,73,0.00,,,0.00,0,Wunderground v.1.15,2013-01-08 10:59:00,
2013-01-08 06:04:00,25.9,18.4,29.64,N/A,-32768,0.0,0.0,73,0.00,,,0.00,0,Wunderground v.1.15,2013-01-08 11:04:00,
2013-01-08 06:09:00,25.9,18.4,29.64,N/A,-32768,0.0,0.0,73,0.00,,,0.00,0,Wunderground v.1.15,2013-01-08 11:09:00,
2013-01-08 06:14:00,25.9,18.4,29.65,N/A,-32768,0.0,0.0,73,0.00,,,0.00,0,Wunderground v.1.15,2013-01-08 11:14:00,
2013-01-08 06:20:00,25.7,18.2,29.65,N/A,-32768,0.0,0.0,73,0.00,,,0.00,0,Wunderground v.1.15,2013-01-08 11:20:00,
2013-01-08 06:24:00,25.6,18.1,29.66,N/A,-32768,0.0,0.0,73,0.00,,,0.00,0,Wunderground v.1.15,2013-01-08 11:24:00,
2013-01-08 06:29:00,25.7,18.2,29.65,N/A,-32768,0.0,0.0,73,0.00,,,0.00,0,Wunderground v.1.15,2013-01-08 11:29:00,
2013-01-08 06:34:00,25.9,18.4,29.66,N/A,-32768,0.0,0.0,73,0.00,,,0.00,0,Wunderground v.1.15,2013-01-08 11:34:00,
2013-01-08 06:39:00,26.0,18.5,29.66,N/A,-32768,0.0,0.0,73,0.00,,,0.00,0,Wunderground v.1.15,2013-01-08 11:39:00,
2013-01-08 06:44:00,26.3,18.8,29.66,N/A,-32768,0.0,0.0,73,0.00,,,0.00,0,Wunderground v.1.15,2013-01-08 11:44:00,
2013-01-08 06:49:00,26.6,19.4,29.66,N/A,-32768,0.0,0.0,74,0.00,,,0.00,0,Wunderground v.1.15,2013-01-08 11:49:00,
2013-01-08 06:55:00,26.5,19.0,29.66,N/A,-32768,0.0,0.0,73,0.00,,,0.00,0,Wunderground v.1.15,2013-01-08 11:55:00,
2013-01-08 07:00:00,26.6,19.1,29.66,N/A,-32768,0.0,0.0,73,0.00,,,0.00,0,Wunderground v.1.15,2013-01-08 12:00:00,
2013-01-08 07:05:00,26.5,19.0,29.66,N/A,-32768,0.0,0.0,73,0.00,,,0.00,0,Wunderground v.1.15,2013-01-08 12:05:00,
2013-01-08 07:10:00,26.6,19.1,29.66,N/A,-32768,0.0,0.0,73,0.00,,,0.00,0,Wunderground v.1.15,2013-01-08 12:10:00,
2013-01-08 07:15:00,26.7,19.2,29.66,N/A,-32768,0.0,0.0,73,0.00,,,0.00,0,Wunderground v.1.15,2013-01-08 12:15:00,
2013-01-08 07:20:00,26.8,19.3,29.66,N/A,-32768,0.0,0.0,73,0.00,,,0.00,0,Wunderground v.1.15,2013-01-08 12:20:00,
2013-01-08 07:25:00,27.3,20.1,29.65,N/A,-32768,0.0,0.0,74,0.00,,,0.00,0,Wunderground v.1.15,2013-01-08 12:25:00,
2013-01-08 07:30:00,27.8,20.6,29.66,N/A,-32768,0.0,0.0,74,0.00,,,0.00,0,Wunderground v.1.15,2013-01-08 12:30:00,
2013-01-08 07:35:00,28.6,21.7,29.65,N/A,-32768,0.0,0.0,75,0.00,,,0.00,0,Wunderground v.1.15,2013-01-08 12:35:00,
2013-01-08 07:40:00,29.0,21.7,29.65,N/A,-32768,0.0,0.0,74,0.00,,,0.00,0,Wunderground v.1.15,2013-01-08 12:40:00,
2013-01-08 07:45:00,29.5,22.6,29.65,N/A,-32768,0.0,0.0,75,0.00,,,0.00,0,Wunderground v.1.15,2013-01-08 12:45:00,
2013-01-08 07:50:00,30.5,23.5,29.66,N/A,-32768,0.0,0.0,75,0.00,,,0.00,0,Wunderground v.1.15,2013-01-08 12:50:00,
2013-01-08 07:55:00,31.1,24.1,29.67,N/A,-32768,0.0,0.0,75,0.00,,,0.00,0,Wunderground v.1.15,2013-01-08 12:55:00,
2013-01-08 08:00:00,31.9,24.9,29.67,N/A,-32768,0.0,0.0,75,0.00,,,0.00,0,Wunderground v.1.15,2013-01-08 13:00:00,
2013-01-08 08:05:00,32.3,25.3,29.67,N/A,-32768,0.0,0.0,75,0.00,,,0.00,0,Wunderground v.1.15,2013-01-08 13:05:00,
2013-01-08 08:10:00,32.7,25.6,29.67,N/A,-32768,0.0,0.0,75,0.00,,,0.00,0,Wunderground v.1.15,2013-01-08 13:10:00,
2013-01-08 08:15:00,33.3,26.2,29.67,N/A,-32768,0.0,0.0,75,0.00,,,0.00,0,Wunderground v.1.15,2013-01-08 13:15:00,
2013-01-08 08:20:00,33.3,25.9,29.67,N/A,-32768,0.0,0.0,74,0.00,,,0.00,0,Wunderground v.1.15,2013-01-08 13:20:00,
2013-01-08 08:25:00,33.6,26.2,29.68,N/A,-32768,0.0,0.0,74,0.00,,,0.00,0,Wunderground v.1.15,2013-01-08 13:25:00,
2013-01-08 08:30:00,34.2,26.8,29.68,N/A,-32768,0.0,0.0,74,0.00,,,0.00,0,Wunderground v.1.15,2013-01-08 13:30:00,
2013-01-08 08:35:00,34.7,26.9,29.68,N/A,-32768,0.0,0.0,73,0.00,,,0.00,0,Wunderground v.1.15,2013-01-08 13:35:00,
2013-01-08 08:40:00,35.1,27.3,29.68,N/A,-32768,0.0,0.0,73,0.00,,,0.00,0,Wunderground v.1.15,2013-01-08 13:40:00,
2013-01-08 08:45:00,35.2,27.4,29.68,N/A,-32768,0.0,0.0,73,0.00,,,0.00,0,Wunderground v.1.15,2013-01-08 13:45:00,
2013-01-08 08:50:00,35.6,27.8,29.68,N/A,-32768,0.0,0.0,73,0.00,,,0.00,0,Wunderground v.1.15,2013-01-08 13:50:00,
2013-01-08 08:55:00,35.9,27.7,29.68,N/A,-32768,0.0,0.0,72,0.00,,,0.00,0,Wunderground v.1.15,2013-01-08 13:55:00,
2013-01-08 09:00:00,36.1,27.9,29.68,N/A,-32768,0.0,0.0,72,0.00,,,0.00,0,Wunderground v.1.15,2013-01-08 14:00:00,
2013-01-08 09:06:00,36.3,27.8,29.68,N/A,-32768,0.0,0.0,71,0.00,,,0.00,0,Wunderground v.1.15,2013-01-08 14:06:00,
2013-01-08 09:11:00,37.0,28.5,29.68,N/A,-32768,0.0,0.0,71,0.00,,,0.00,0,Wunderground v.1.15,2013-01-08 14:11:00,
2013-01-08 09:16:00,37.8,28.9,29.68,N/A,-32768,0.0,0.0,70,0.00,,,0.00,0,Wunderground v.1.15,2013-01-08 14:16:00,
2013-01-08 09:21:00,38.3,29.0,29.68,N/A,-32768,0.0,0.0,69,0.00,,,0.00,0,Wunderground v.1.15,2013-01-08 14:21:00,
2013-01-08 09:26:00,38.8,28.8,29.68,N/A,-32768,0.0,0.0,67,0.00,,,0.00,0,Wunderground v.1.15,2013-01-08 14:26:00,
2013-01-08 09:31:00,39.2,28.0,29.68,N/A,-32768,0.0,0.0,64,0.00,,,0.00,0,Wunderground v.1.15,2013-01-08 14:31:00,
2013-01-08 09:36:00,39.6,28.0,29.68,N/A,-32768,0.0,0.0,63,0.00,,,0.00,0,Wunderground v.1.15,2013-01-08 14:36:00,
2013-01-08 09:41:00,40.4,28.4,29.68,N/A,-32768,0.0,0.0,62,0.00,,,0.00,0,Wunderground v.1.15,2013-01-08 14:41:00,
2013-01-08 09:46:00,41.0,29.0,29.68,N/A,-32768,0.0,0.0,62,0.00,,,0.00,0,Wunderground v.1.15,2013-01-08 14:46:00,
2013-01-08 09:51:00,41.3,28.4,29.68,N/A,-32768,0.0,0.0,60,0.00,,,0.00,0,Wunderground v.1.15,2013-01-08 14:51:00,
2013-01-08 09:56:00,42.1,28.8,29.68,N/A,-32768,0.0,0.0,59,0.00,,,0.00,0,Wunderground v.1.15,2013-01-08 14:56:00,
2013-01-08 10:01:00,42.5,30.0,29.68,N/A,-32768,0.0,0.0,61,0.00,,,0.00,0,Wunderground v.1.15,2013-01-08 15:01:00,
2013-01-08 10:06:00,43.1,29.7,29.68,N/A,-32768,0.0,0.0,59,0.00,,,0.00,0,Wunderground v.1.15,2013-01-08 15:06:00,
2013-01-08 10:11:00,43.4,29.6,29.68,N/A,-32768,0.0,0.0,58,0.00,,,0.00,0,Wunderground v.1.15,2013-01-08 15:11:00,
2013-01-08 10:16:00,44.0,29.7,29.68,N/A,-32768,0.0,0.0,57,0.00,,,0.00,0,Wunderground v.1.15,2013-01-08 15:16:00,
2013-01-08 10:21:00,44.4,29.2,29.67,N/A,-32768,0.0,0.0,55,0.00,,,0.00,0,Wunderground v.1.15,2013-01-08 15:21:00,
2013-01-08 10:26:00,44.7,28.1,29.67,N/A,-32768,0.0,0.0,52,0.00,,,0.00,0,Wunderground v.1.15,2013-01-08 15:26:00,
2013-01-08 10:31:00,44.9,27.8,29.67,N/A,-32768,0.0,0.0,51,0.00,,,0.00,0,Wunderground v.1.15,2013-01-08 15:31:00,
2013-01-08 10:36:00,45.3,28.7,29.67,N/A,-32768,0.0,0.0,52,0.00,,,0.00,0,Wunderground v.1.15,2013-01-08 15:36:00,
2013-01-08 10:41:00,45.6,29.0,29.66,N/A,-32768,0.0,0.0,52,0.00,,,0.00,0,Wunderground v.1.15,2013-01-08 15:41:00,
2013-01-08 10:46:00,46.1,29.0,29.66,N/A,-32768,0.0,0.0,51,0.00,,,0.00,0,Wunderground v.1.15,2013-01-08 15:46:00,
2013-01-08 10:51:00,46.4,29.2,29.66,N/A,-32768,0.0,0.0,51,0.00,,,0.00,0,Wunderground v.1.15,2013-01-08 15:51:00,
2013-01-08 10:56:00,46.6,28.9,29.65,N/A,-32768,0.0,0.0,50,0.00,,,0.00,0,Wunderground v.1.15,2013-01-08 15:56:00,
2013-01-08 11:01:00,47.1,29.4,29.65,N/A,-32768,0.0,0.0,50,0.00,,,0.00,0,Wunderground v.1.15,2013-01-08 16:01:00,
2013-01-08 11:06:00,47.2,29.0,29.65,N/A,-32768,0.0,0.0,49,0.00,,,0.00,0,Wunderground v.1.15,2013-01-08 16:06:00,
2013-01-08 11:11:00,47.3,28.6,29.64,N/A,-32768,0.0,0.0,48,0.00,,,0.00,0,Wunderground v.1.15,2013-01-08 16:11:00,
2013-01-08 11:16:00,47.4,29.2,29.64,N/A,-32768,0.0,0.0,49,0.00,,,0.00,0,Wunderground v.1.15,2013-01-08 16:16:00,
2013-01-08 11:21:00,47.8,29.0,29.63,N/A,-32768,0.0,0.0,48,0.00,,,0.00,0,Wunderground v.1.15,2013-01-08 16:21:00,
2013-01-08 11:26:00,48.0,29.2,29.63,N/A,-32768,0.0,0.0,48,0.00,,,0.00,0,Wunderground v.1.15,2013-01-08 16:26:00,
2013-01-08 11:31:00,48.2,28.9,29.62,N/A,-32768,0.0,0.0,47,0.00,,,0.00,0,Wunderground v.1.15,2013-01-08 16:31:00,
2013-01-08 11:36:00,48.1,28.8,29.62,N/A,-32768,0.0,0.0,47,0.00,,,0.00,0,Wunderground v.1.15,2013-01-08 16:36:00,
2013-01-08 11:41:00,48.1,29.3,29.62,N/A,-32768,0.0,0.0,48,0.00,,,0.00,0,Wunderground v.1.15,2013-01-08 16:41:00,
2013-01-08 11:46:00,48.3,29.0,29.61,N/A,-32768,0.0,0.0,47,0.00,,,0.00,0,Wunderground v.1.15,2013-01-08 16:46:00,
2013-01-08 11:51:00,48.3,28.5,29.61,N/A,-32768,0.0,0.0,46,0.00,,,0.00,0,Wunderground v.1.15,2013-01-08 16:51:00,
2013-01-08 11:56:00,48.4,28.5,29.62,N/A,-32768,0.0,0.0,46,0.00,,,0.00,0,Wunderground v.1.15,2013-01-08 16:56:00,
2013-01-08 12:01:00,48.4,28.5,29.61,N/A,-32768,0.0,0.0,46,0.00,,,0.00,0,Wunderground v.1.15,2013-01-08 17:01:00,
2013-01-08 12:06:00,48.5,29.2,29.61,N/A,-32768,0.0,0.0,47,0.00,,,0.00,0,Wunderground v.1.15,2013-01-08 17:06:00,
2013-01-08 12:11:00,48.6,28.7,29.61,N/A,-32768,0.0,0.0,46,0.00,,,0.00,0,Wunderground v.1.15,2013-01-08 17:11:00,
2013-01-08 12:16:00,48.6,28.7,29.62,N/A,-32768,0.0,0.0,46,0.00,,,0.00,0,Wunderground v.1.15,2013-01-08 17:16:00,
2013-01-08 12:21:00,48.6,28.7,29.62,N/A,-32768,0.0,0.0,46,0.00,,,0.00,0,Wunderground v.1.15,2013-01-08 17:21:00,
2013-01-08 12:26:00,48.8,29.4,29.61,N/A,-32768,0.0,0.0,47,0.00,,,0.00,0,Wunderground v.1.15,2013-01-08 17:26:00,
2013-01-08 12:31:00,49.1,28.7,29.61,N/A,-32768,0.0,0.0,45,0.00,,,0.00,0,Wunderground v.1.15,2013-01-08 17:31:00,
2013-01-08 12:36:00,49.2,28.7,29.61,N/A,-32768,0.0,0.0,45,0.00,,,0.00,0,Wunderground v.1.15,2013-01-08 17:36:00,
2013-01-08 12:41:00,49.2,28.7,29.61,N/A,-32768,0.0,0.0,45,0.00,,,0.00,0,Wunderground v.1.15,2013-01-08 17:41:00,
2013-01-08 12:46:00,49.0,29.1,29.60,N/A,-32768,0.0,0.0,46,0.00,,,0.00,0,Wunderground v.1.15,2013-01-08 17:46:00,
2013-01-08 12:51:00,48.8,28.9,29.60,N/A,-32768,0.0,0.0,46,0.00,,,0.00,0,Wunderground v.1.15,2013-01-08 17:51:00,
2013-01-08 12:56:00,48.9,29.0,29.60,N/A,-32768,0.0,0.0,46,0.00,,,0.00,0,Wunderground v.1.15,2013-01-08 17:56:00,
2013-01-08 13:02:00,49.0,29.1,29.60,N/A,-32768,0.0,0.0,46,0.00,,,0.00,0,Wunderground v.1.15,2013-01-08 18:02:00,
2013-01-08 13:07:00,49.0,29.1,29.60,N/A,-32768,0.0,0.0,46,0.00,,,0.00,0,Wunderground v.1.15,2013-01-08 18:07:00,
2013-01-08 13:12:00,49.2,28.7,29.60,N/A,-32768,0.0,0.0,45,0.00,,,0.00,0,Wunderground v.1.15,2013-01-08 18:12:00,
2013-01-08 13:17:00,49.3,29.4,29.60,N/A,-32768,0.0,0.0,46,0.00,,,0.00,0,Wunderground v.1.15,2013-01-08 18:17:00,
2013-01-08 13:22:00,49.5,29.0,29.60,N/A,-32768,0.0,0.0,45,0.00,,,0.00,0,Wunderground v.1.15,2013-01-08 18:22:00,
2013-01-08 13:27:00,49.5,29.0,29.59,N/A,-32768,0.0,0.0,45,0.00,,,0.00,0,Wunderground v.1.15,2013-01-08 18:27:00,
2013-01-08 13:32:00,49.7,29.2,29.59,N/A,-32768,0.0,0.0,45,0.00,,,0.00,0,Wunderground v.1.15,2013-01-08 18:32:00,
2013-01-08 13:37:00,49.9,29.4,29.60,N/A,-32768,0.0,0.0,45,0.00,,,0.00,0,Wunderground v.1.15,2013-01-08 18:37:00,
2013-01-08 13:42:00,50.3,29.7,29.60,N/A,-32768,0.0,0.0,45,0.00,,,0.00,0,Wunderground v.1.15,2013-01-08 18:42:00,
2013-01-08 13:47:00,50.5,29.4,29.60,N/A,-32768,0.0,0.0,44,0.00,,,0.00,0,Wunderground v.1.15,2013-01-08 18:47:00,
2013-01-08 13:52:00,50.4,28.7,29.60,N/A,-32768,0.0,0.0,43,0.00,,,0.00,0,Wunderground v.1.15,2013-01-08 18:52:00,
2013-01-08 13:57:00,50.4,29.3,29.59,N/A,-32768,0.0,0.0,44,0.00,,,0.00,0,Wunderground v.1.15,2013-01-08 18:57:00,
2013-01-08 14:02:00,50.4,29.3,29.59,N/A,-32768,0.0,0.0,44,0.00,,,0.00,0,Wunderground v.1.15,2013-01-08 19:02:00,
2013-01-08 14:07:00,50.4,29.3,29.59,N/A,-32768,0.0,0.0,44,0.00,,,0.00,0,Wunderground v.1.15,2013-01-08 19:07:00,
2013-01-08 14:12:00,50.6,29.5,29.59,N/A,-32768,0.0,0.0,44,0.00,,,0.00,0,Wunderground v.1.15,2013-01-08 19:12:00,
2013-01-08 14:17:00,50.7,29.6,29.60,N/A,-32768,0.0,0.0,44,0.00,,,0.00,0,Wunderground v.1.15,2013-01-08 19:17:00,
2013-01-08 14:22:00,50.6,29.5,29.60,N/A,-32768,0.0,0.0,44,0.00,,,0.00,0,Wunderground v.1.15,2013-01-08 19:22:00,
2013-01-08 14:27:00,50.8,29.1,29.60,N/A,-32768,0.0,0.0,43,0.00,,,0.00,0,Wunderground v.1.15,2013-01-08 19:27:00,
2013-01-08 14:32:00,50.6,28.9,29.60,N/A,-32768,0.0,0.0,43,0.00,,,0.00,0,Wunderground v.1.15,2013-01-08 19:32:00,
2013-01-08 14:37:00,50.3,28.6,29.60,N/A,-32768,0.0,0.0,43,0.00,,,0.00,0,Wunderground v.1.15,2013-01-08 19:37:00,
2013-01-08 14:42:00,50.4,29.3,29.61,N/A,-32768,0.0,0.0,44,0.00,,,0.00,0,Wunderground v.1.15,2013-01-08 19:42:00,
2013-01-08 14:47:00,50.3,29.2,29.60,N/A,-32768,0.0,0.0,44,0.00,,,0.00,0,Wunderground v.1.15,2013-01-08 19:47:00,
2013-01-08 14:52:00,50.0,28.9,29.60,N/A,-32768,0.0,0.0,44,0.00,,,0.00,0,Wunderground v.1.15,2013-01-08 19:52:00,
2013-01-08 14:57:00,49.9,28.8,29.60,N/A,-32768,0.0,0.0,44,0.00,,,0.00,0,Wunderground v.1.15,2013-01-08 19:57:00,
2013-01-08 15:02:00,50.2,29.7,29.60,N/A,-32768,0.0,0.0,45,0.00,,,0.00,0,Wunderground v.1.15,2013-01-08 20:02:00,
2013-01-08 15:07:00,50.5,29.4,29.60,N/A,-32768,0.0,0.0,44,0.00,,,0.00,0,Wunderground v.1.15,2013-01-08 20:07:00,
2013-01-08 15:12:00,50.8,29.6,29.61,N/A,-32768,0.0,0.0,44,0.00,,,0.00,0,Wunderground v.1.15,2013-01-08 20:12:00,
2013-01-08 15:17:00,51.1,29.9,29.61,N/A,-32768,0.0,0.0,44,0.00,,,0.00,0,Wunderground v.1.15,2013-01-08 20:17:00,
2013-01-08 15:22:00,51.2,29.4,29.60,N/A,-32768,0.0,0.0,43,0.00,,,0.00,0,Wunderground v.1.15,2013-01-08 20:22:00,
2013-01-08 15:27:00,50.8,29.6,29.61,N/A,-32768,0.0,0.0,44,0.00,,,0.00,0,Wunderground v.1.15,2013-01-08 20:27:00,
2013-01-08 15:32:00,50.5,29.4,29.61,N/A,-32768,0.0,0.0,44,0.00,,,0.00,0,Wunderground v.1.15,2013-01-08 20:32:00,
2013-01-08 15:37:00,50.2,29.7,29.61,N/A,-32768,0.0,0.0,45,0.00,,,0.00,0,Wunderground v.1.15,2013-01-08 20:37:00,
2013-01-08 15:42:00,50.1,29.0,29.61,N/A,-32768,0.0,0.0,44,0.00,,,0.00,0,Wunderground v.1.15,2013-01-08 20:42:00,
2013-01-08 15:47:00,49.9,29.4,29.61,N/A,-32768,0.0,0.0,45,0.00,,,0.00,0,Wunderground v.1.15,2013-01-08 20:47:00,
2013-01-08 15:52:00,49.8,29.3,29.61,N/A,-32768,0.0,0.0,45,0.00,,,0.00,0,Wunderground v.1.15,2013-01-08 20:52:00,
2013-01-08 15:58:00,49.6,29.1,29.61,N/A,-32768,0.0,0.0,45,0.00,,,0.00,0,Wunderground v.1.15,2013-01-08 20:58:00,
2013-01-08 16:03:00,49.4,28.9,29.61,N/A,-32768,0.0,0.0,45,0.00,,,0.00,0,Wunderground v.1.15,2013-01-08 21:03:00,
2013-01-08 16:08:00,49.0,29.1,29.62,N/A,-32768,0.0,0.0,46,0.00,,,0.00,0,Wunderground v.1.15,2013-01-08 21:08:00,
2013-01-08 16:13:00,48.6,28.7,29.62,N/A,-32768,0.0,0.0,46,0.00,,,0.00,0,Wunderground v.1.15,2013-01-08 21:13:00,
2013-01-08 16:18:00,48.3,29.0,29.62,N/A,-32768,0.0,0.0,47,0.00,,,0.00,0,Wunderground v.1.15,2013-01-08 21:18:00,
2013-01-08 16:23:00,47.7,28.9,29.61,N/A,-32768,0.0,0.0,48,0.00,,,0.00,0,Wunderground v.1.15,2013-01-08 21:23:00,
2013-01-08 16:28:00,47.2,29.0,29.62,N/A,-32768,0.0,0.0,49,0.00,,,0.00,0,Wunderground v.1.15,2013-01-08 21:28:00,
2013-01-08 16:33:00,46.8,28.6,29.62,N/A,-32768,0.0,0.0,49,0.00,,,0.00,0,Wunderground v.1.15,2013-01-08 21:33:00,
2013-01-08 16:38:00,46.3,28.2,29.62,N/A,-32768,0.0,0.0,49,0.00,,,0.00,0,Wunderground v.1.15,2013-01-08 21:38:00,
2013-01-08 16:43:00,45.9,28.3,29.62,N/A,-32768,0.0,0.0,50,0.00,,,0.00,0,Wunderground v.1.15,2013-01-08 21:43:00,
2013-01-08 16:48:00,45.6,28.5,29.62,N/A,-32768,0.0,0.0,51,0.00,,,0.00,0,Wunderground v.1.15,2013-01-08 21:48:00,
2013-01-08 16:53:00,45.1,28.0,29.62,N/A,-32768,0.0,0.0,51,0.00,,,0.00,0,Wunderground v.1.15,2013-01-08 21:53:00,
2013-01-08 16:58:00,44.5,27.5,29.62,N/A,-32768,0.0,0.0,51,0.00,,,0.00,0,Wunderground v.1.15,2013-01-08 21:58:00,
2013-01-08 17:03:00,44.0,27.5,29.62,N/A,-32768,0.0,0.0,52,0.00,,,0.00,0,Wunderground v.1.15,2013-01-08 22:03:00,
2013-01-08 17:08:00,43.4,27.4,29.62,N/A,-32768,0.0,0.0,53,0.00,,,0.00,0,Wunderground v.1.15,2013-01-08 22:08:00,
2013-01-08 17:13:00,42.8,26.8,29.62,N/A,-32768,0.0,0.0,53,0.00,,,0.00,0,Wunderground v.1.15,2013-01-08 22:13:00,
2013-01-08 17:18:00,42.2,26.7,29.62,N/A,-32768,0.0,0.0,54,0.00,,,0.00,0,Wunderground v.1.15,2013-01-08 22:18:00,
2013-01-08 17:23:00,41.6,26.6,29.62,N/A,-32768,0.0,0.0,55,0.00,,,0.00,0,Wunderground v.1.15,2013-01-08 22:23:00,
2013-01-08 17:28:00,41.2,26.2,29.62,N/A,-32768,0.0,0.0,55,0.00,,,0.00,0,Wunderground v.1.15,2013-01-08 22:28:00,
2013-01-08 17:33:00,40.8,26.3,29.63,N/A,-32768,0.0,0.0,56,0.00,,,0.00,0,Wunderground v.1.15,2013-01-08 22:33:00,
2013-01-08 17:38:00,40.2,25.7,29.63,N/A,-32768,0.0,0.0,56,0.00,,,0.00,0,Wunderground v.1.15,2013-01-08 22:38:00,
2013-01-08 17:43:00,39.5,25.5,29.62,N/A,-32768,0.0,0.0,57,0.00,,,0.00,0,Wunderground v.1.15,2013-01-08 22:43:00,
2013-01-08 17:48:00,38.9,24.9,29.62,N/A,-32768,0.0,0.0,57,0.00,,,0.00,0,Wunderground v.1.15,2013-01-08 22:48:00,
2013-01-08 17:54:00,38.2,24.7,29.63,N/A,-32768,0.0,0.0,58,0.00,,,0.00,0,Wunderground v.1.15,2013-01-08 22:54:00,
2013-01-08 17:59:00,37.9,24.4,29.62,N/A,-32768,0.0,0.0,58,0.00,,,0.00,0,Wunderground v.1.15,2013-01-08 22:59:00,
2013-01-08 18:04:00,37.4,24.0,29.62,N/A,-32768,0.0,0.0,58,0.00,,,0.00,0,Wunderground v.1.15,2013-01-08 23:04:00,
2013-01-08 18:09:00,37.0,24.0,29.62,N/A,-32768,0.0,0.0,59,0.00,,,0.00,0,Wunderground v.1.15,2013-01-08 23:09:00,
2013-01-08 18:14:00,36.7,23.7,29.62,N/A,-32768,0.0,0.0,59,0.00,,,0.00,0,Wunderground v.1.15,2013-01-08 23:14:00,
2013-01-08 18:19:00,36.3,23.3,29.62,N/A,-32768,0.0,0.0,59,0.00,,,0.00,0,Wunderground v.1.15,2013-01-08 23:19:00,
2013-01-08 18:24:00,35.9,23.4,29.63,N/A,-32768,0.0,0.0,60,0.00,,,0.00,0,Wunderground v.1.15,2013-01-08 23:24:00,
2013-01-08 18:29:00,35.9,23.4,29.62,N/A,-32768,0.0,0.0,60,0.00,,,0.00,0,Wunderground v.1.15,2013-01-08 23:29:00,
2013-01-08 18:34:00,35.6,23.1,29.63,N/A,-32768,0.0,0.0,60,0.00,,,0.00,0,Wunderground v.1.15,2013-01-08 23:34:00,
2013-01-08 18:39:00,35.1,23.0,29.63,N/A,-32768,0.0,0.0,61,0.00,,,0.00,0,Wunderground v.1.15,2013-01-08 23:39:00,
2013-01-08 18:44:00,34.7,23.0,29.63,N/A,-32768,0.0,0.0,62,0.00,,,0.00,0,Wunderground v.1.15,2013-01-08 23:44:00,
2013-01-08 18:49:00,34.5,22.8,29.63,N/A,-32768,0.0,0.0,62,0.00,,,0.00,0,Wunderground v.1.15,2013-01-08 23:49:00,
2013-01-08 18:54:00,34.1,22.8,29.63,N/A,-32768,0.0,0.0,63,0.00,,,0.00,0,Wunderground v.1.15,2013-01-08 23:54:00,
2013-01-08 18:59:00,33.9,22.6,29.63,N/A,-32768,0.0,0.0,63,0.00,,,0.00,0,Wunderground v.1.15,2013-01-08 23:59:00,
2013-01-08 19:04:00,33.6,22.7,29.63,N/A,-32768,0.0,0.0,64,0.00,,,0.00,0,Wunderground v.1.15,2013-01-09 00:04:00,
2013-01-08 19:09:00,33.1,22.2,29.63,N/A,-32768,0.0,0.0,64,0.00,,,0.00,0,Wunderground v.1.15,2013-01-09 00:09:00,
2013-01-08 19:14:00,33.0,22.5,29.63,N/A,-32768,0.0,0.0,65,0.00,,,0.00,0,Wunderground v.1.15,2013-01-09 00:14:00,
2013-01-08 19:19:00,32.8,22.3,29.63,N/A,-32768,0.0,0.0,65,0.00,,,0.00,0,Wunderground v.1.15,2013-01-09 00:19:00,
2013-01-08 19:24:00,32.6,22.5,29.63,N/A,-32768,0.0,0.0,66,0.00,,,0.00,0,Wunderground v.1.15,2013-01-09 00:24:00,
2013-01-08 19:29:00,32.2,22.1,29.63,N/A,-32768,0.0,0.0,66,0.00,,,0.00,0,Wunderground v.1.15,2013-01-09 00:29:00,
2013-01-08 19:34:00,32.0,21.9,29.63,N/A,-32768,0.0,0.0,66,0.00,,,0.00,0,Wunderground v.1.15,2013-01-09 00:34:00,
2013-01-08 19:39:00,32.2,22.1,29.63,N/A,-32768,0.0,0.0,66,0.00,,,0.00,0,Wunderground v.1.15,2013-01-09 00:39:00,
2013-01-08 19:44:00,32.1,22.0,29.63,N/A,-32768,0.0,0.0,66,0.00,,,0.00,0,Wunderground v.1.15,2013-01-09 00:44:00,
2013-01-08 19:49:00,31.9,22.2,29.64,N/A,-32768,0.0,0.0,67,0.00,,,0.00,0,Wunderground v.1.15,2013-01-09 00:49:00,
2013-01-08 19:54:00,32.1,22.4,29.64,N/A,-32768,0.0,0.0,67,0.00,,,0.00,0,Wunderground v.1.15,2013-01-09 00:54:00,
2013-01-08 19:59:00,31.9,22.2,29.64,N/A,-32768,0.0,0.0,67,0.00,,,0.00,0,Wunderground v.1.15,2013-01-09 00:59:00,
2013-01-08 20:04:00,31.8,22.1,29.64,N/A,-32768,0.0,0.0,67,0.00,,,0.00,0,Wunderground v.1.15,2013-01-09 01:04:00,
2013-01-08 20:09:00,31.9,22.5,29.63,N/A,-32768,0.0,0.0,68,0.00,,,0.00,0,Wunderground v.1.15,2013-01-09 01:09:00,
2013-01-08 20:14:00,32.2,22.8,29.63,N/A,-32768,0.0,0.0,68,0.00,,,0.00,0,Wunderground v.1.15,2013-01-09 01:14:00,
2013-01-08 20:19:00,32.2,22.8,29.64,N/A,-32768,0.0,0.0,68,0.00,,,0.00,0,Wunderground v.1.15,2013-01-09 01:19:00,
2013-01-08 20:24:00,32.3,22.9,29.63,N/A,-32768,0.0,0.0,68,0.00,,,0.00,0,Wunderground v.1.15,2013-01-09 01:24:00,
2013-01-08 20:29:00,32.5,23.1,29.63,N/A,-32768,0.0,0.0,68,0.00,,,0.00,0,Wunderground v.1.15,2013-01-09 01:29:00,
2013-01-08 20:34:00,32.4,23.4,29.63,N/A,-32768,0.0,0.0,69,0.00,,,0.00,0,Wunderground v.1.15,2013-01-09 01:34:00,
2013-01-08 20:39:00,32.5,23.5,29.63,N/A,-32768,0.0,0.0,69,0.00,,,0.00,0,Wunderground v.1.15,2013-01-09 01:39:00,
2013-01-08 20:44:00,32.5,23.5,29.62,N/A,-32768,0.0,0.0,69,0.00,,,0.00,0,Wunderground v.1.15,2013-01-09 01:44:00,
2013-01-08 20:49:00,32.4,23.4,29.63,N/A,-32768,0.0,0.0,69,0.00,,,0.00,0,Wunderground v.1.15,2013-01-09 01:49:00,
2013-01-08 20:54:00,32.5,23.5,29.62,N/A,-32768,0.0,0.0,69,0.00,,,0.00,0,Wunderground v.1.15,2013-01-09 01:54:00,
2013-01-08 20:59:00,32.4,23.4,29.63,N/A,-32768,0.0,0.0,69,0.00,,,0.00,0,Wunderground v.1.15,2013-01-09 01:59:00,
2013-01-08 21:05:00,32.1,23.1,29.63,N/A,-32768,0.0,0.0,69,0.00,,,0.00,0,Wunderground v.1.15,2013-01-09 02:05:00,
2013-01-08 21:10:00,32.3,23.3,29.62,N/A,-32768,0.0,0.0,69,0.00,,,0.00,0,Wunderground v.1.15,2013-01-09 02:10:00,
2013-01-08 21:15:00,32.2,23.2,29.62,N/A,-32768,0.0,0.0,69,0.00,,,0.00,0,Wunderground v.1.15,2013-01-09 02:15:00,
2013-01-08 21:20:00,32.2,23.2,29.62,N/A,-32768,0.0,0.0,69,0.00,,,0.00,0,Wunderground v.1.15,2013-01-09 02:20:00,
2013-01-08 21:25:00,32.5,23.8,29.62,N/A,-32768,0.0,0.0,70,0.00,,,0.00,0,Wunderground v.1.15,2013-01-09 02:25:00,
2013-01-08 21:30:00,32.6,23.9,29.62,N/A,-32768,0.0,0.0,70,0.00,,,0.00,0,Wunderground v.1.15,2013-01-09 02:30:00,
2013-01-08 21:35:00,32.5,23.8,29.62,N/A,-32768,0.0,0.0,70,0.00,,,0.00,0,Wunderground v.1.15,2013-01-09 02:35:00,
2013-01-08 21:40:00,32.1,23.4,29.62,N/A,-32768,0.0,0.0,70,0.00,,,0.00,0,Wunderground v.1.15,2013-01-09 02:40:00,
2013-01-08 21:45:00,32.0,23.3,29.62,N/A,-32768,0.0,0.0,70,0.00,,,0.00,0,Wunderground v.1.15,2013-01-09 02:45:00,
2013-01-08 21:50:00,32.0,23.3,29.62,N/A,-32768,0.0,0.0,70,0.00,,,0.00,0,Wunderground v.1.15,2013-01-09 02:50:00,
2013-01-08 21:55:00,31.5,22.8,29.63,N/A,-32768,0.0,0.0,70,0.00,,,0.00,0,Wunderground v.1.15,2013-01-09 02:55:00,
2013-01-08 22:00:00,31.2,22.5,29.63,N/A,-32768,0.0,0.0,70,0.00,,,0.00,0,Wunderground v.1.15,2013-01-09 03:00:00,
2013-01-08 22:05:00,31.0,22.4,29.63,N/A,-32768,0.0,0.0,70,0.00,,,0.00,0,Wunderground v.1.15,2013-01-09 03:05:00,
2013-01-08 22:10:00,30.7,21.4,29.63,N/A,-32768,0.0,0.0,68,0.00,,,0.00,0,Wunderground v.1.15,2013-01-09 03:10:00,
2013-01-08 22:15:00,30.4,21.8,29.63,N/A,-32768,0.0,0.0,70,0.00,,,0.00,0,Wunderground v.1.15,2013-01-09 03:15:00,
2013-01-08 22:20:00,30.2,21.6,29.63,N/A,-32768,0.0,0.0,70,0.00,,,0.00,0,Wunderground v.1.15,2013-01-09 03:20:00,
2013-01-08 22:25:00,30.0,21.7,29.64,N/A,-32768,0.0,0.0,71,0.00,,,0.00,0,Wunderground v.1.15,2013-01-09 03:25:00,
2013-01-08 22:30:00,30.0,21.7,29.64,N/A,-32768,0.0,0.0,71,0.00,,,0.00,0,Wunderground v.1.15,2013-01-09 03:30:00,
2013-01-08 22:35:00,30.3,22.0,29.64,N/A,-32768,0.0,0.0,71,0.00,,,0.00,0,Wunderground v.1.15,2013-01-09 03:35:00,
2013-01-08 22:40:00,30.2,21.9,29.64,N/A,-32768,0.0,0.0,71,0.00,,,0.00,0,Wunderground v.1.15,2013-01-09 03:40:00,
2013-01-08 22:45:00,30.2,22.3,29.64,N/A,-32768,0.0,0.0,72,0.00,,,0.00,0,Wunderground v.1.15,2013-01-09 03:45:00,
2013-01-08 22:50:00,30.4,22.4,29.64,N/A,-32768,0.0,0.0,72,0.00,,,0.00,0,Wunderground v.1.15,2013-01-09 03:50:00,
2013-01-08 22:55:00,30.7,22.7,29.64,N/A,-32768,0.0,0.0,72,0.00,,,0.00,0,Wunderground v.1.15,2013-01-09 03:55:00,
2013-01-08 23:00:00,30.6,22.6,29.65,N/A,-32768,0.0,0.0,72,0.00,,,0.00,0,Wunderground v.1.15,2013-01-09 04:00:00,
2013-01-08 23:05:00,31.0,23.0,29.65,N/A,-32768,0.0,0.0,72,0.00,,,0.00,0,Wunderground v.1.15,2013-01-09 04:05:00,
2013-01-08 23:10:00,31.0,23.0,29.65,N/A,-32768,0.0,0.0,72,0.00,,,0.00,0,Wunderground v.1.15,2013-01-09 04:10:00,
2013-01-08 23:15:00,31.3,23.3,29.65,N/A,-32768,0.0,0.0,72,0.00,,,0.00,0,Wunderground v.1.15,2013-01-09 04:15:00,
2013-01-08 23:20:00,31.5,23.5,29.65,N/A,-32768,0.0,0.0,72,0.00,,,0.00,0,Wunderground v.1.15,2013-01-09 04:20:00,
2013-01-08 23:25:00,31.6,23.9,29.65,N/A,-32768,0.0,0.0,73,0.00,,,0.00,0,Wunderground v.1.15,2013-01-09 04:25:00,
2013-01-08 23:30:00,32.0,24.3,29.64,N/A,-32768,0.0,0.0,73,0.00,,,0.00,0,Wunderground v.1.15,2013-01-09 04:30:00,
2013-01-08 23:35:00,32.0,24.3,29.64,N/A,-32768,0.0,0.0,73,0.00,,,0.00,0,Wunderground v.1.15,2013-01-09 04:35:00,
2013-01-08 23:40:00,32.3,24.6,29.64,N/A,-32768,0.0,0.0,73,0.00,,,0.00,0,Wunderground v.1.15,2013-01-09 04:40:00,
2013-01-08 23:45:00,32.5,24.8,29.63,N/A,-32768,0.0,0.0,73,0.00,,,0.00,0,Wunderground v.1.15,2013-01-09 04:45:00,
2013-01-08 23:50:00,32.7,25.0,29.63,N/A,-32768,0.0,0.0,73,0.00,,,0.00,0,Wunderground v.1.15,2013-01-09 04:50:00,
2013-01-08 23:55:00,33.1,25.4,29.63,N/A,-32768,0.0,0.0,73,0.00,,,0.00,0,Wunderground v.1.15,2013-01-09 04:55:00,